This demonstration page uses our WeatherBlox Daily Observations layout. Learn more.

Left ArrowRight Arrow

Hourly Observations for August 1, 2021

Temp ( °F °C ) Dew Point ( °F °C ) Humidity (%) Winds ( mph kmh ) Pressure ( in mb ) Visibility ( mi km ) Precip ( " mm )
12:54 am 00:54 Clear with Mist and Fog 70 21.1 66 18.9 87 87 N 7 11 30.13 1020 4 6 0.00 0.00
1:54 am 01:54 Mostly Clear with Mist and Fog 69 20.6 65 18.3 87 87 N 7 11 30.13 1020 4 6 0.00 0.00
2:54 am 02:54 Hazy 69 20.6 63 17.2 81 81 NNW 8 13 30.14 1021 5 8 0.00 0.00
3:54 am 03:54 Hazy 67 19.4 61 16.1 81 81 NNW 6 9 30.14 1021 6 10 0.00 0.00
4:54 am 04:54 Clear with Mist and Fog 61 16.1 58 14.4 90 90 NNW 3 6 30.15 1021 4 6 0.00 0.00
5:54 am 05:54 Clear with Mist and Fog 61 16.1 57 13.9 87 87 N 5 7 30.16 1021 6 10 0.00 0.00
6:54 am 06:54 Hazy 64 17.8 58 14.4 81 81 NNW 7 11 30.17 1022 5 8 0.00 0.00
7:54 am 07:54 Hazy 65 18.3 59 15 81 81 N 6 9 30.19 1022 6 10 0.00 0.00
8:54 am 08:54 Hazy 70 21.1 58 14.4 66 66 NNW 9 15 30.20 1023 4 6 0.00 0.00
9:54 am 09:54 Hazy 73 22.8 57 13.9 57 57 N 12 19 30.20 1023 3 5 0.00 0.00
10:54 am 10:54 Hazy 77 25 56 13.3 48 48 N 10 17 30.21 1023 3 5 0.00 0.00
11:54 am 11:54 Hazy 80 26.7 53 11.7 39 39 N 16 26 30.21 1023 4 6 0.00 0.00
12:54 pm 12:54 Hazy 80 26.7 52 11.1 38 38 N 17 28 30.20 1023 6 10 0.00 0.00
1:54 pm 13:54 Sunny 81 27.2 51 10.6 35 35 N 15 24 30.20 1023 9 14 0.00 0.00
2:54 pm 14:54 Sunny 82 27.8 52 11.1 35 35 NNE 16 26 30.18 1022 10 16 0.00 0.00
3:54 pm 15:54 Sunny 83 28.3 53 11.7 36 36 N 15 24 30.18 1022 10 16 0.00 0.00
4:54 pm 16:54 Sunny 82 27.8 54 12.2 38 38 NNE 13 20 30.17 1022 10 16 0.00 0.00
5:54 pm 17:54 Sunny 81 27.2 54 12.2 39 39 NNE 13 20 30.16 1022 10 16 0.00 0.00
6:54 pm 18:54 Sunny 79 26.1 55 12.8 44 44 NE 10 17 30.16 1021 10 16 0.00 0.00
7:54 pm 19:54 Sunny 76 24.4 56 13.3 50 50 NE 8 13 30.15 1021 10 16 0.00 0.00
8:54 pm 20:54 Clear 69 20.6 55 12.8 61 61 NNE 6 9 30.16 1021 10 16 0.00 0.00
9:54 pm 21:54 Clear 65 18.3 56 13.3 73 73 N 7 11 30.18 1022 10 16 0.00 0.00
10:54 pm 22:54 Clear 63 17.2 58 14.4 84 84 N 6 9 30.19 1022 10 16 0.00 0.00
11:54 pm 23:54 Clear 66 18.9 56 13.3 70 70 NNW 3 6 30.19 1022 10 16 0.00 0.00

Powered by AerisWeather